This demonstration page uses our WeatherBlox Daily Observations layout. Learn more.

Left ArrowRight Arrow

Hourly Observations for October 6, 2021

Temp ( °F °C ) Dew Point ( °F °C ) Humidity (%) Winds ( mph kmh ) Pressure ( in mb ) Visibility ( mi km ) Precip ( " mm )
12:53 am 00:53 Clear 68 20 40 4.4 36 36 SSW 8 13 29.87 1012 10 16 N/A
1:53 am 01:53 Partly Cloudy 67 19.4 43 6.1 42 42 SSW 6 9 29.90 1012 10 16 N/A
2:53 am 02:53 Clear 65 18.3 44 6.7 47 47 S 7 11 29.90 1013 10 16 N/A
3:53 am 03:53 Clear 64 17.8 46 7.8 52 52 N N/A 29.91 1013 10 16 N/A
4:53 am 04:53 Cloudy 60 15.6 41 5 50 50 ESE 6 9 29.92 1013 10 16 N/A
5:53 am 05:53 Partly Cloudy 61 16.1 46 7.8 58 58 SE 9 15 29.92 1013 10 16 N/A
6:53 am 06:53 Mostly Clear 61 16.1 47 8.3 60 60 N N/A 29.93 1014 10 16 N/A
7:53 am 07:53 Partly Cloudy 60 15.6 47 8.3 62 62 N N/A 29.94 1014 10 16 N/A
8:53 am 08:53 Mostly Cloudy 61 16.1 48 8.9 63 63 WSW 7 11 29.95 1014 10 16 N/A
9:53 am 09:53 Mostly Sunny 63 17.2 49 9.4 60 60 S 6 9 29.96 1015 10 16 N/A
10:53 am 10:53 Mostly Cloudy 67 19.4 48 8.9 51 51 S 8 13 29.95 1014 10 16 N/A
11:53 am 11:53 Partly Cloudy 69 20.6 47 8.3 45 45 VRB 7 11 29.95 1014 10 16 N/A
12:53 pm 12:53 Partly Cloudy 71 21.7 45 7.2 39 39 VRB 3 6 29.92 1013 10 16 N/A
1:53 pm 13:53 Sunny 73 22.8 40 4.4 30 30 S 7 11 29.90 1013 10 16 N/A
2:53 pm 14:53 Sunny 75 23.9 42 5.6 31 31 SSW 10 17 29.88 1012 10 16 N/A
3:53 pm 15:53 Sunny 73 22.8 46 7.8 38 38 SSE 12 19 29.88 1012 10 16 N/A
4:53 pm 16:53 Sunny 72 22.2 45 7.2 38 38 S 13 20 29.87 1012 10 16 N/A
5:53 pm 17:53 Sunny 71 21.7 45 7.2 39 39 SSE 9 15 29.88 1012 10 16 N/A
6:18 pm 18:18 Hazy 70 21.1 46 7.8 42 42 S 8 13 29.88 1012 1 2 N/A
6:21 pm 18:21 Hazy 70 21.1 46 7.8 42 42 S 8 13 29.88 1012 5 8 N/A
6:53 pm 18:53 Clear 68 20 46 7.8 45 45 S 5 7 29.88 1012 10 16 N/A
7:53 pm 19:53 Clear 67 19.4 47 8.3 49 49 S 7 11 29.89 1012 10 16 N/A
8:53 pm 20:53 Clear 63 17.2 46 7.8 54 54 NNW 3 6 29.90 1013 10 16 N/A
9:53 pm 21:53 Clear 62 16.7 46 7.8 56 56 N 3 6 29.92 1013 10 16 N/A
10:53 pm 22:53 Mostly Cloudy 59 15 46 7.8 62 62 WNW 3 6 29.92 1013 10 16 N/A
11:53 pm 23:53 Partly Cloudy 60 15.6 45 7.2 58 58 N 5 7 29.91 1013 10 16 N/A

Powered by AerisWeather